This is the latest recevied weather packets stored in our database for station/object DD3UTS-13. If no packets are shown the sender has not sent any weather packets the latest 1 day(s).
| Time | Temp. | Humidity | Pressure | Rain* | Wind** | Luminosity | Snow |
|---|---|---|---|---|---|---|---|
| 1777992932 | 18.89° C | 61% | 1007 hPa | 0.25 mm | 2.24 m/s, 355° | 188 W/m² | - |
| 1777992631 | 19.44° C | 61% | 1007 hPa | 0.25 mm | 1.79 m/s, 322° | 251 W/m² | - |
| 1777992331 | 19.44° C | 62% | 1007 hPa | 0.25 mm | 1.79 m/s, 317° | 274 W/m² | - |
| 1777991731 | 19.44° C | 61% | 1007.1 hPa | 0.25 mm | 2.24 m/s, 347° | 230 W/m² | - |
| 1777991132 | 19.44° C | 61% | 1007.2 hPa | 0.25 mm | 1.79 m/s, 342° | 239 W/m² | - |
| 1777990832 | 20° C | 61% | 1007.3 hPa | 0.25 mm | 2.24 m/s, 355° | 250 W/m² | - |
| 1777990532 | 20° C | 61% | 1007.3 hPa | 0.25 mm | 2.68 m/s, 357° | 268 W/m² | - |
| 1777990232 | 20° C | 61% | 1007.3 hPa | 0.25 mm | 1.79 m/s, 350° | 279 W/m² | - |
| 1777989932 | 20° C | 62% | 1007.3 hPa | 0.25 mm | 1.79 m/s, 345° | 303 W/m² | - |
| 1777989632 | 20° C | 62% | 1007.3 hPa | 0.25 mm | 1.79 m/s, 337° | 321 W/m² | - |
| 1777989332 | 20° C | 63% | 1007.3 hPa | 0.25 mm | 2.68 m/s, 340° | 339 W/m² | - |
| 1777989031 | 19.44° C | 63% | 1007.2 hPa | 0.25 mm | 2.68 m/s, 355° | 344 W/m² | - |
| 1777988731 | 19.44° C | 63% | 1007.3 hPa | 0.25 mm | 2.68 m/s, 342° | 342 W/m² | - |
| 1777988431 | 19.44° C | 63% | 1007.3 hPa | 0.25 mm | 1.79 m/s, 355° | 360 W/m² | - |
| 1777988131 | 19.44° C | 63% | 1007.3 hPa | 0.25 mm | 1.79 m/s, 357° | 280 W/m² | - |
| 1777986931 | 19.44° C | 61% | 1007.4 hPa | 0.25 mm | 2.24 m/s, 317° | 99 W/m² | - |
| 1777986631 | 19.44° C | 61% | 1007.5 hPa | 0.25 mm | 1.79 m/s, 357° | 93 W/m² | - |
| 1777986332 | 20° C | 59% | 1007.6 hPa | 0.25 mm | 2.24 m/s, 310° | 100 W/m² | - |
| 1777986032 | 20.56° C | 59% | 1007.5 hPa | 0.25 mm | 2.24 m/s, 352° | 123 W/m² | - |
| 1777985432 | 21.11° C | 57% | 1007.6 hPa | 0.25 mm | 1.79 m/s, 317° | 203 W/m² | - |
| 1777984832 | 21.67° C | 57% | 1007.7 hPa | 0.25 mm | 3.13 m/s, 357° | 249 W/m² | - |
| 1777984532 | 22.22° C | 55% | 1007.6 hPa | 0.25 mm | 2.24 m/s, 350° | 304 W/m² | - |
| 1777984231 | 22.78° C | 54% | 1007.6 hPa | 0.25 mm | 3.13 m/s, 340° | 481 W/m² | - |
| 1777983932 | 22.78° C | 55% | 1007.7 hPa | 0.25 mm | 2.24 m/s, 340° | 506 W/m² | - |
| 1777983632 | 22.22° C | 53% | 1007.7 hPa | 0.25 mm | 4.02 m/s, 335° | 724 W/m² | - |
* Rain latest 24 hours (hover to see other rain measurements)
** Current wind speed in m/s (hover to see current wind gust speed)